Forside
METAR-TAF:

METAR-TAF

Lufthavne :

Hōfu, Japan

Breddekreds: 34-02N, længdekreds: 131-33E, højde: 2 m

Aktuelle vejr

Denne rapport blev lavet for 5 timer og 54 minutter siden, kl. 11:34 UTC
Vind 3 kt fra nordnordøst
Temperatur 11°C
Fugtighed 71%
Tryk 1019 hPa
Sigt 10 km eller mere
Nogle få skyer i en højde af 4000 ft
Spredte skyer i en højde af 12000 ft

METAR: RJOF 031134Z 02003KT 9999 FEW040 SCT120 11/06 Q1019 RMK 1SC040 3AC120 A3010

Tid: 02:28 (17:28 UTC)


TAF: fraværende

Vejrobservationer og prognoser fra mere end 4000 lufthavne (METAR og TAF).

De gule og røde prikker repræsenterer de meteorologiske stationer.

Flyt musen over at se navnet på stationen.

Så klik over at se vejr observationer og prognoser.

At skifte det kort: Klik på de grønne knapper med et sort kors for at zoome ind; på den grønne knap med en bindestreg for at zoome ud; eller på de grønne pile for tilstødende kort.


METAR-TAF: